Time,TemperatureF,DewpointF,PressureIn,WindDirection,WindDirectionDegrees,WindSpeedMPH,WindSpeedGustMPH,Humidity,HourlyPrecipIn,Conditions,Clouds,dailyrainin,SoftwareType,DateUTC
2013-02-03 00:04:00,11.5,6.0,29.98,WNW,290,3.0,0.0,92,0.00,,,-99.99,,2013-02-03 06:04:00,
2013-02-03 00:34:00,12.1,6.0,29.98,WNW,290,4.0,0.0,92,0.00,,,-99.99,,2013-02-03 06:34:00,
2013-02-03 01:04:00,11.2,8.0,29.98,West,280,6.0,0.0,92,0.00,,,-99.99,,2013-02-03 07:04:00,
2013-02-03 01:34:00,10.5,8.0,29.98,West,280,6.0,0.0,92,0.00,,,-99.99,,2013-02-03 07:34:00,
2013-02-03 02:04:00,9.8,6.0,29.99,WNW,300,12.0,0.0,92,0.00,,,-99.99,,2013-02-03 08:04:00,
2013-02-03 02:34:00,10.1,6.0,29.99,WNW,300,12.0,0.0,92,0.00,,,-99.99,,2013-02-03 08:34:00,
2013-02-03 03:04:00,10.3,5.0,30.01,WNW,300,12.0,0.0,84,0.00,,,-99.99,,2013-02-03 09:04:00,
2013-02-03 03:34:00,10.4,5.0,30.01,WNW,300,12.0,0.0,84,0.00,,,-99.99,,2013-02-03 09:34:00,
2013-02-03 04:04:00,10.4,3.0,30.01,WNW,300,9.0,0.0,78,0.00,,,-99.99,,2013-02-03 10:04:00,
2013-02-03 04:34:00,9.7,3.0,30.01,WNW,300,9.0,0.0,78,0.00,,,-99.99,,2013-02-03 10:34:00,
2013-02-03 05:04:00,8.9,3.0,30.03,WNW,290,12.0,0.0,78,0.00,,,-99.99,,2013-02-03 11:04:00,
2013-02-03 05:34:00,7.6,3.0,30.03,WNW,290,12.0,0.0,78,0.00,,,-99.99,,2013-02-03 11:34:00,
2013-02-03 06:04:00,6.6,1.0,30.04,WNW,300,11.0,0.0,77,0.00,,,-99.99,,2013-02-03 12:04:00,
2013-02-03 06:34:00,6.0,1.0,30.04,WNW,300,11.0,0.0,77,0.00,,,-99.99,,2013-02-03 12:34:00,
2013-02-03 07:04:00,5.6,0.0,30.05,WNW,300,9.0,0.0,84,0.00,,,-99.99,,2013-02-03 13:04:00,
2013-02-03 07:34:00,4.9,0.0,30.05,WNW,300,9.0,0.0,84,0.00,,,-99.99,,2013-02-03 13:34:00,
2013-02-03 08:04:00,5.9,0.0,30.05,NW,320,5.0,0.0,84,0.00,,,-99.99,,2013-02-03 14:04:00,
2013-02-03 08:34:00,6.6,0.0,30.05,NW,320,5.0,0.0,84,0.00,,,-99.99,,2013-02-03 14:34:00,
2013-02-03 09:04:00,5.8,0.0,30.07,NW,310,10.0,0.0,77,0.00,,,-99.99,,2013-02-03 15:04:00,
2013-02-03 09:34:00,6.3,0.0,30.07,NW,310,10.0,0.0,77,0.00,,,-99.99,,2013-02-03 15:34:00,
2013-02-03 10:04:00,8.8,0.0,30.07,WNW,300,9.0,0.0,71,0.00,,,-99.99,,2013-02-03 16:04:00,
2013-02-03 10:34:00,12.0,0.0,30.07,WNW,300,9.0,0.0,71,0.00,,,-99.99,,2013-02-03 16:34:00,
2013-02-03 11:04:00,11.3,0.0,30.08,WNW,300,6.0,0.0,65,0.00,,,-99.99,,2013-02-03 17:04:00,
2013-02-03 11:34:00,13.8,0.0,30.08,WNW,300,6.0,0.0,65,0.00,,,-99.99,,2013-02-03 17:34:00,
2013-02-03 12:04:00,13.1,1.0,30.06,NW,310,6.0,0.0,61,0.00,,,-99.99,,2013-02-03 18:04:00,
2013-02-03 12:34:00,15.4,1.0,30.06,NW,310,6.0,0.0,61,0.00,,,-99.99,,2013-02-03 18:34:00,
2013-02-03 13:04:00,15.7,1.0,30.04,WNW,290,5.0,0.0,61,0.00,,,-99.99,,2013-02-03 19:04:00,
2013-02-03 13:34:00,17.8,1.0,30.04,WNW,290,5.0,0.0,61,0.00,,,-99.99,,2013-02-03 19:34:00,
2013-02-03 14:04:00,15.1,3.0,30.02,West,260,8.0,0.0,66,0.00,,,-99.99,,2013-02-03 20:04:00,
2013-02-03 14:34:00,16.8,5.0,30.01,West,270,5.0,0.0,72,0.00,,,-99.99,,2013-02-03 20:34:00,
2013-02-03 15:04:00,14.8,6.0,30.00,West,280,6.0,0.0,78,0.00,,,-99.99,,2013-02-03 21:04:00,
2013-02-03 15:34:00,15.2,6.0,30.00,West,270,5.0,0.0,78,0.00,,,-99.99,,2013-02-03 21:34:00,
2013-02-03 16:10:00,14.1,5.0,29.99,West,280,4.0,0.0,72,0.00,,,-99.99,,2013-02-03 22:10:00,
2013-02-03 16:34:00,15.0,5.0,29.99,West,280,4.0,0.0,72,0.00,,,-99.99,,2013-02-03 22:34:00,
2013-02-03 17:04:00,14.1,5.0,29.98,North,0,0.0,0.0,72,0.00,,,-99.99,,2013-02-03 23:04:00,
2013-02-03 17:34:00,15.0,6.0,29.98,North,0,0.0,0.0,78,0.00,,,-99.99,,2013-02-03 23:34:00,
2013-02-03 18:04:00,14.0,8.0,29.99,SW,220,4.0,0.0,85,0.00,,,-99.99,,2013-02-04 00:04:00,
2013-02-03 18:34:00,14.4,8.0,29.99,WSW,250,3.0,0.0,85,0.00,,,-99.99,,2013-02-04 00:34:00,
2013-02-03 19:04:00,13.8,8.0,29.99,North,0,0.0,0.0,85,0.00,,,-99.99,,2013-02-04 01:04:00,
2013-02-03 19:34:00,13.3,8.0,29.99,North,0,0.0,0.0,85,0.00,,,-99.99,,2013-02-04 01:34:00,
2013-02-03 20:04:00,12.8,8.0,29.97,North,0,0.0,0.0,85,0.00,,,-99.99,,2013-02-04 02:04:00,
2013-02-03 20:34:00,13.8,8.0,29.97,North,0,0.0,0.0,85,0.00,,,-99.99,,2013-02-04 02:34:00,
2013-02-03 21:04:00,13.6,10.0,29.97,North,0,0.0,0.0,92,0.00,,,-99.99,,2013-02-04 03:04:00,
2013-02-03 21:34:00,12.4,8.0,29.97,North,3,3.0,0.0,85,0.00,,,-99.99,,2013-02-04 03:34:00,
2013-02-03 22:04:00,13.2,8.0,29.98,NNE,20,6.0,0.0,85,0.00,,,-99.99,,2013-02-04 04:04:00,
2013-02-03 22:34:00,12.6,8.0,29.97,ENE,60,6.0,0.0,85,0.00,,,-99.99,,2013-02-04 04:34:00,
2013-02-03 23:04:00,12.5,8.0,29.97,NE,50,6.0,0.0,92,0.00,,,-99.99,,2013-02-04 05:04:00,
2013-02-03 23:34:00,11.0,8.0,29.96,ENE,60,5.0,0.0,92,0.00,,,-99.99,,2013-02-04 05:34:00,